Wind_Speed
35 37 40 40 42 43 45 46 45 44 45 45 44 43 40 40 42 43 43 43 43 41 41 41 41 40 40 41 41 41 40 39 38 38 37 36 34 33 32 31 31 32 33 33
32 32 33 35 36 39 41 41 41 42 44 44 43 42 40 40 41 42 43 44 43 43 43 43 43 43 43 43 43 44 43 43 41 40 40 40 41 39 36 34 32 32 33 33
30 31 32 33 34 35 36 37 37 38 39 40 41 40 37 37 38 40 41 42 43 43 43 44 45 45 45 45 46 46 47 47 46 45 44 44 44 42 39 37 34 35 36 36
31 30 31 31 31 31 32 32 31 31 33 35 37 37 30 32 34 35 36 39 41 42 43 43 44 45 47 47 48 49 50 50 50 50 48 46 45 44 43 42 41 40 40 39
28 28 28 27 27 27 26 25 24 26 27 29 28 34 28 27 29 32 34 37 40 42 43 44 46 47 49 50 52 52 52 53 53 54 52 50 48 47 47 47 46 45 43 42
25 24 24 24 24 23 21 21 21 21 22 23 21 29 28 26 29 33 37 39 42 45 47 49 50 52 53 54 56 57 58 58 58 58 57 55 52 50 49 49 48 48 47 46
21 22 23 23 23 21 20 19 18 18 19 20 22 25 27 30 32 35 38 41 44 47 49 51 53 55 56 56 57 59 60 61 62 63 63 61 58 54 51 50 50 50 49 48
22 23 24 23 22 20 18 17 16 17 19 20 23 26 26 30 33 36 39 41 44 47 49 52 55 57 58 59 60 60 61 62 63 65 66 66 64 59 54 52 51 51 49 48
24 23 23 21 19 17 15 14 14 17 19 22 23 25 25 28 32 36 39 42 45 48 50 53 55 56 58 59 60 61 61 62 63 64 66 67 67 63 58 55 53 52 50 49
24 22 21 18 16 13 11 11 14 17 21 23 22 21 24 28 31 35 38 42 45 48 51 53 55 56 57 57 57 58 59 60 61 63 65 66 66 64 60 57 54 52 50 49
21 19 17 15 12 10 10 12 15 18 20 22 21 18 23 27 31 34 38 43 47 49 52 53 53 53 52 52 52 53 54 56 58 61 64 65 64 63 60 57 54 52 50 49
18 16 13 11 10 9 10 13 15 16 17 18 19 17 23 27 31 35 40 44 47 49 51 50 49 47 46 45 45 46 47 49 52 56 61 63 62 62 59 56 54 52 50 47
15 13 11 10 9 9 11 14 14 13 13 14 16 17 24 27 31 35 39 42 44 45 45 43 41 39 38 38 38 40 40 42 44 48 54 57 59 59 57 54 52 50 47 45
13 11 10 9 9 10 12 13 11 10 10 10 15 17 21 26 30 33 36 37 38 37 36 34 32 31 31 31 33 35 36 37 39 41 45 50 53 54 53 50 48 46 44 41
12 11 11 11 10 11 11 10 8 8 8 11 15 19 23 26 29 31 32 32 31 29 27 24 22 21 22 24 26 28 29 30 31 33 37 43 46 48 47 45 43 41 40 38
12 12 12 12 11 10 9 7 6 6 9 12 16 19 23 25 27 28 29 28 26 25 21 18 14 12 12 14 16 17 18 21 23 26 31 35 39 40 39 38 37 36 36 35
13 13 13 12 11 9 7 5 4 6 9 13 16 19 21 23 25 25 25 24 23 21 18 15 12 8 4 1 5 8 13 16 20 24 26 29 32 32 32 32 32 32 32 32
14 13 13 12 10 8 7 5 4 6 9 13 16 18 20 22 23 23 23 22 21 19 17 15 12 11 9 9 10 12 14 16 19 22 24 26 27 27 28 28 28 28 29 32
14 14 13 11 9 8 7 6 5 6 9 12 14 16 18 20 20 20 21 20 19 18 16 14 13 13 14 15 16 18 19 20 21 22 22 22 23 23 23 24 25 27 31 35
15 14 13 11 10 9 8 7 6 7 9 10 12 14 16 17 18 18 18 18 17 16 15 14 13 12 13 14 16 17 18 19 19 18 18 18 18 19 20 23 27 29 32 33
15 13 13 12 11 11 10 9 7 8 8 9 10 12 14 15 16 16 16 15 15 14 13 13 13 12 12 12 12 12 13 14 14 14 14 16 17 19 20 22 23 24 25 27
14 14 13 13 13 12 11 10 9 8 9 9 9 11 12 13 14 13 13 12 11 10 11 11 12 11 10 10 9 9 9 9 9 9 9 10 10 11 13 15 16 19 22 25
13 14 14 14 15 14 13 12 10 9 9 8 9 9 10 11 12 11 10 9 9 8 8 8 9 9 9 8 8 7 6 5 4 3 4 4 5 7 9 12 15 19 23 27
15 15 15 16 16 15 14 13 12 11 9 8 8 8 8 9 10 9 8 7 6 6 6 6 7 7 7 7 7 7 7 6 4 3 2 3 5 8 11 15 19 23 27 30
18 18 17 17 18 17 17 16 14 12 11 9 8 7 7 8 8 7 6 5 4 4 4 5 5 6 6 6 6 5 5 5 4 4 6 8 11 14 17 20 23 27 30 32
20 19 18 18 20 19 19 18 16 14 12 11 9 7 6 7 7 6 5 5 4 3 2 2 2 3 3 4 5 5 6 7 8 10 12 14 17 19 21 24 26 29 31 33
Wind_Direction
217 221 225 228 230 232 234 235 238 240 241 243 244 245 245 246 247 248 250 250 251 253 252 251 250 248 245 244 245 248 250 250 250 251 254 257 257 255 254 254 255 258 261 264
215 218 221 226 230 233 235 236 239 242 243 244 245 246 248 249 250 251 252 251 251 251 252 252 252 251 249 246 246 247 248 250 250 251 252 253 253 254 253 253 254 258 260 262
214 217 220 225 228 231 233 235 237 241 245 248 248 247 249 252 253 254 254 254 253 253 253 253 253 253 252 250 249 248 248 249 250 250 250 250 251 254 256 256 256 256 257 260
214 217 221 224 227 230 233 235 238 241 244 249 251 250 247 253 255 256 255 255 255 256 256 256 256 256 255 255 254 252 250 249 250 250 250 250 252 254 256 256 255 255 257 260
214 217 221 223 225 228 231 233 235 238 243 248 252 256 247 250 253 256 257 257 258 258 259 259 259 259 258 258 257 257 255 253 252 251 251 251 251 251 253 255 257 257 259 261
211 213 214 215 216 219 218 222 226 231 239 245 248 257 258 259 257 258 259 261 261 261 261 261 261 261 260 260 259 258 257 255 254 252 251 251 251 251 252 254 256 257 258 260
204 205 205 205 205 203 202 209 219 228 237 246 251 256 266 272 271 269 267 266 266 265 264 263 263 262 261 260 258 257 256 255 253 252 251 250 250 250 250 251 253 255 257 259
195 198 197 194 193 191 195 210 227 240 246 253 260 265 274 281 280 278 276 274 272 271 270 269 268 267 265 262 259 257 254 252 251 250 249 249 248 248 248 249 251 253 255 257
186 187 185 185 187 195 206 225 244 260 267 272 274 278 284 285 284 282 281 280 279 278 277 275 274 271 269 266 263 259 255 252 249 247 246 245 245 245 246 247 248 250 252 254
180 181 182 186 195 208 226 247 266 278 284 285 283 293 295 289 287 287 288 288 287 285 283 281 278 275 272 268 264 260 256 253 249 245 242 241 241 241 241 243 245 247 250 252
178 182 189 197 209 225 247 265 277 283 286 289 292 304 292 292 294 297 298 297 295 292 289 286 282 277 273 268 263 259 255 252 248 243 238 235 235 236 236 238 241 244 247 250
183 190 201 212 227 247 264 274 279 283 287 291 300 307 300 302 305 305 304 302 299 296 292 288 283 277 272 266 260 256 253 250 247 241 235 231 228 228 230 233 236 241 245 249
191 200 214 229 245 262 274 279 282 283 288 297 305 311 309 312 312 311 309 308 305 301 297 291 283 276 269 264 258 254 251 248 245 241 235 228 224 223 224 228 233 238 242 246
204 215 230 246 261 274 280 281 282 286 291 300 311 319 317 318 319 319 317 316 314 310 304 296 285 276 269 263 258 252 249 245 240 236 231 225 220 218 219 223 229 235 240 244
217 230 245 258 268 277 274 271 272 279 296 318 327 329 329 328 327 327 327 326 326 324 318 309 294 281 270 262 256 251 246 237 231 226 222 219 215 213 215 220 226 232 238 243
229 242 254 263 272 269 259 256 263 293 324 335 335 336 335 335 334 336 337 338 340 340 338 332 320 300 279 264 250 239 225 214 209 208 206 206 206 208 212 218 225 231 237 243
235 244 253 261 265 257 248 249 280 321 336 338 338 340 341 341 341 344 347 350 353 355 358 2 8 9 356 243 187 174 174 176 181 183 187 193 198 203 209 216 223 230 237 243
237 243 249 254 253 248 241 249 283 318 332 337 340 343 344 346 348 352 356 360 4 9 15 23 38 49 63 86 108 125 137 149 160 165 173 183 191 198 206 214 222 230 238 245
238 241 243 243 242 232 228 241 275 310 325 336 341 343 345 350 354 358 5 10 13 17 27 36 48 63 81 97 105 113 123 134 146 157 166 177 186 196 205 215 223 232 241 245
233 235 234 234 234 225 226 238 266 301 320 334 340 344 347 352 357 1 6 14 17 22 31 40 51 65 82 100 108 115 124 134 142 151 163 176 187 198 210 222 229 236 244 253
225 227 229 231 231 229 231 242 266 290 313 329 340 346 350 353 357 1 7 13 20 28 35 42 49 63 77 94 108 116 129 142 154 168 180 193 203 211 223 234 239 248 260 270
222 223 226 231 231 233 237 246 263 285 305 321 333 341 347 352 354 357 2 9 19 26 32 35 44 57 71 83 94 107 125 144 159 176 189 201 213 228 240 251 260 267 275 281
226 228 230 233 234 237 243 251 262 279 292 308 322 332 339 344 347 349 354 4 15 28 34 40 46 54 62 67 76 85 103 125 144 167 192 221 249 267 273 277 281 285 290 293
233 233 234 233 236 239 244 251 261 271 281 294 307 319 329 334 337 337 341 351 5 17 37 53 57 61 68 74 75 78 80 81 74 61 25 324 303 299 298 298 300 301 302 303
239 237 236 235 240 241 245 251 257 264 270 278 287 299 316 326 328 326 323 328 340 3 29 47 58 64 66 65 62 56 47 37 18 352 332 321 315 312 310 309 309 309 309 309
242 242 241 239 241 243 247 250 254 257 260 262 267 275 290 309 317 313 302 300 297 296 313 348 17 25 26 21 14 8 359 347 335 327 321 318 316 315 314 314 313 312 312 312
Height
5670 5677 5683 5689 5694 5698 5703 5708 5712 5716 5719 5723 5727 5731 5735 5738 5739 5741 5743 5745 5747 5748 5749 5751 5753 5755 5758 5760 5763 5765 5766 5768 5769 5770 5771 5772 5773 5775 5776 5777 5778 5779 5779 5780
5668 5673 5678 5682 5687 5692 5697 5701 5706 5709 5712 5716 5720 5724 5727 5729 5731 5732 5734 5736 5738 5739 5740 5741 5743 5745 5747 5750 5752 5755 5756 5758 5760 5762 5763 5763 5764 5765 5768 5770 5771 5772 5772 5772
5662 5669 5673 5678 5682 5686 5690 5695 5699 5703 5705 5709 5712 5718 5721 5722 5722 5724 5725 5726 5728 5730 5731 5732 5733 5735 5737 5740 5742 5743 5745 5747 5749 5751 5753 5754 5754 5756 5759 5762 5764 5764 5763 5764
5657 5663 5668 5673 5678 5681 5686 5690 5694 5697 5700 5703 5706 5709 5716 5714 5715 5716 5717 5718 5719 5720 5721 5722 5723 5725 5727 5728 5729 5731 5734 5736 5738 5740 5742 5744 5746 5748 5751 5753 5754 5754 5755 5755
5655 5660 5665 5669 5674 5678 5682 5686 5689 5692 5694 5697 5700 5701 5709 5709 5709 5708 5709 5710 5710 5711 5712 5712 5713 5714 5715 5716 5717 5718 5720 5723 5726 5728 5731 5734 5736 5739 5741 5742 5743 5745 5746 5747
5651 5656 5661 5666 5670 5675 5679 5682 5685 5687 5689 5694 5696 5696 5700 5701 5701 5700 5701 5701 5700 5701 5701 5701 5701 5702 5702 5702 5703 5704 5705 5708 5711 5714 5718 5721 5724 5727 5729 5731 5733 5734 5735 5737
5649 5653 5658 5662 5667 5672 5676 5679 5682 5684 5686 5689 5691 5691 5693 5691 5690 5691 5691 5690 5689 5688 5688 5687 5687 5687 5686 5686 5686 5687 5688 5691 5694 5698 5702 5706 5711 5715 5718 5720 5722 5724 5725 5727
5646 5651 5656 5660 5665 5669 5673 5676 5679 5681 5683 5684 5685 5685 5688 5683 5681 5679 5679 5678 5676 5674 5673 5671 5670 5669 5668 5667 5667 5668 5669 5672 5675 5679 5685 5690 5695 5701 5705 5708 5710 5713 5715 5717
5645 5650 5655 5659 5663 5667 5671 5673 5676 5677 5677 5678 5679 5679 5679 5674 5672 5669 5667 5664 5661 5659 5656 5653 5651 5648 5647 5645 5645 5646 5648 5651 5655 5659 5665 5672 5679 5685 5691 5695 5698 5701 5704 5706
5645 5650 5654 5658 5662 5666 5669 5671 5672 5672 5671 5671 5672 5672 5669 5665 5662 5659 5655 5651 5647 5642 5638 5634 5630 5627 5625 5624 5623 5623 5625 5629 5633 5638 5645 5653 5662 5669 5675 5681 5686 5690 5693 5696
5646 5651 5655 5658 5661 5663 5666 5668 5667 5667 5666 5665 5664 5667 5661 5657 5653 5649 5644 5637 5631 5625 5619 5614 5609 5606 5603 5602 5602 5602 5604 5607 5612 5618 5625 5635 5645 5653 5660 5667 5673 5679 5683 5686
5646 5650 5653 5656 5659 5660 5662 5662 5662 5663 5662 5659 5657 5661 5654 5649 5644 5638 5633 5625 5617 5610 5602 5595 5590 5587 5584 5583 5583 5584 5586 5589 5594 5599 5606 5616 5627 5637 5646 5655 5662 5668 5672 5676
5646 5649 5652 5654 5658 5658 5657 5657 5657 5657 5657 5655 5653 5655 5647 5642 5636 5630 5623 5614 5604 5595 5586 5579 5574 5570 5568 5567 5568 5569 5571 5574 5579 5584 5591 5601 5612 5623 5634 5643 5651 5657 5663 5667
5645 5647 5651 5653 5653 5653 5653 5652 5652 5652 5652 5652 5649 5647 5643 5636 5630 5623 5614 5604 5594 5584 5574 5567 5561 5558 5556 5555 5555 5556 5559 5562 5566 5572 5580 5590 5601 5612 5624 5633 5642 5649 5654 5659
5643 5645 5646 5648 5648 5649 5649 5649 5649 5649 5649 5647 5645 5640 5636 5630 5623 5616 5607 5597 5587 5577 5567 5559 5553 5549 5547 5546 5546 5547 5549 5552 5557 5563 5572 5582 5594 5605 5616 5626 5634 5641 5646 5650
5640 5642 5643 5644 5645 5645 5646 5646 5646 5646 5644 5642 5640 5636 5631 5625 5619 5611 5602 5592 5583 5573 5564 5557 5550 5545 5543 5541 5540 5541 5543 5547 5552 5560 5569 5580 5591 5602 5612 5621 5629 5635 5639 5642
5637 5639 5640 5641 5642 5642 5644 5643 5643 5642 5641 5639 5636 5633 5628 5623 5616 5608 5599 5590 5581 5573 5566 5558 5552 5547 5543 5541 5540 5541 5543 5548 5553 5561 5570 5581 5591 5601 5610 5617 5624 5629 5632 5635
5634 5635 5637 5638 5639 5640 5642 5641 5641 5640 5639 5637 5633 5629 5625 5620 5613 5605 5598 5590 5583 5576 5569 5563 5557 5552 5549 5546 5545 5545 5548 5552 5558 5566 5575 5584 5592 5600 5607 5614 5619 5623 5626 5628
5631 5632 5633 5635 5635 5637 5638 5638 5638 5638 5637 5634 5631 5627 5623 5618 5611 5605 5598 5591 5585 5579 5574 5569 5564 5560 5557 5554 5554 5554 5556 5560 5565 5572 5579 5586 5593 5599 5605 5610 5615 5618 5621 5621
5627 5629 5631 5631 5632 5634 5637 5636 5636 5636 5635 5632 5629 5625 5621 5616 5611 5606 5600 5594 5589 5584 5579 5575 5571 5568 5565 5564 5563 5564 5566 5569 5573 5578 5584 5589 5594 5599 5604 5607 5611 5613 5614 5615
5623 5625 5627 5628 5629 5631 5633 5633 5633 5634 5633 5629 5626 5623 5619 5615 5611 5607 5601 5597 5592 5588 5584 5581 5578 5575 5573 5572 5572 5572 5573 5576 5579 5583 5587 5591 5595 5598 5602 5604 5606 5608 5608 5608
5619 5621 5623 5624 5626 5630 5629 5629 5630 5630 5628 5626 5623 5621 5618 5614 5610 5607 5603 5599 5595 5591 5588 5586 5583 5581 5580 5579 5579 5579 5580 5582 5584 5586 5589 5592 5595 5597 5599 5601 5602 5603 5602 5601
5615 5618 5619 5621 5624 5624 5625 5625 5625 5625 5624 5622 5620 5618 5616 5613 5610 5607 5603 5600 5597 5594 5592 5590 5588 5587 5585 5585 5585 5585 5586 5587 5588 5590 5591 5593 5595 5596 5597 5598 5598 5597 5595 5593
5611 5612 5614 5616 5618 5619 5620 5620 5621 5620 5620 5619 5617 5616 5614 5611 5609 5606 5604 5601 5599 5596 5594 5593 5591 5590 5590 5589 5589 5589 5589 5590 5591 5591 5592 5593 5593 5594 5593 5593 5591 5589 5586 5583
5605 5606 5608 5610 5612 5613 5615 5615 5616 5616 5615 5615 5614 5613 5611 5610 5607 5605 5603 5601 5599 5598 5596 5595 5594 5593 5592 5592 5592 5591 5591 5591 5591 5591 5591 5591 5590 5589 5588 5586 5584 5581 5579 5575
5599 5602 5604 5605 5606 5608 5609 5610 5611 5611 5611 5611 5610 5609 5609 5607 5606 5604 5602 5601 5599 5598 5597 5596 5595 5594 5594 5593 5593 5592 5591 5591 5590 5590 5589 5587 5586 5584 5582 5580 5578 5575 5572 5568